Content
SEND FEEDBACK

Daily
Averages
Monthly
Summary
Turkmenistan

KURTILE, TURKMENISTAN


Home > Asia > Turkmenistan
Elevation: 748 feet     Latitude: 37 58N     Longitude: 058 19E

WEATHER
 
SELECT A DAY
Number of Records: 177,393;   Date Range: 3/15/97 - 8/28/14
 
SHARE

PRINT THIS DATA

[ ← Previous Day ]
WEATHER ALMANAC - JANUARY 28, 2013
[ Next Day → ]
[ °C ]   °F
Weather ElementAverageHighLow
Temperature44.8 °F57.2 °F (5:00 pm)35 °F (8:00 am)
Dewpoint35.9 °F39.2 °F (2:00 pm)31 °F (8:00 am)
Humidity70.4 %93 % (7:00 am)31 % (2:00 pm)
Barometer29.98 in30.09 in (2:00 am)29.89 in (5:00 pm)
Wind Speed3.4 mph8.9 mph (12:00 pm)
Weather ElementAverage
Visibility6.1 mi
Wind DirectionESE (102.1 °)

Weather ElementTotal
Precipitation---
Heating Degree Days18.9 (Base 65)
Averaged from 31 records on January 28, 2013
WEATHER CONDITIONS BREAKOUT
WIND DIRECTION BREAKOUT
WEATHER BY HOUR - JANUARY 28, 2013
[ °C ]   °F
Local TimeTemperatureDewpointHumidityBarometerVisibilityWind DirectionWind SpeedGust SpeedPrecipitationEventsConditions
1:00 AM44.6 °F37.4 °F76 %30.06 in6.2 miNE (50°)4.5 mphMostly Cloudy
2:00 AM42.0 °F36.0 °F72 %30.09 in6.0 miNE (50°)4.5 mphClear
2:00 AM44.6 °F35.6 °F71 %30.04 in6.2 miENE (70°)4.5 mphScattered Clouds
3:00 AM39.2 °F35.6 °F87 %30.04 in6.2 miVariable2.2 mphScattered Clouds
4:00 AM39.2 °F33.8 °F81 %30.01 in6.2 miNW (310°)4.5 mphOvercast
5:00 AM39.0 °F35.0 °F79 %30.05 in6.0 miCalmOvercast
5:00 AM37.4 °F33.8 °F87 %29.98 in6.2 miEast (90°)4.5 mphOvercast
6:00 AM37.4 °F33.8 °F87 %29.95 in6.2 miVariable2.2 mphOvercast
7:00 AM35.6 °F33.8 °F93 %29.95 in6.2 miVariable2.2 mphOvercast
8:00 AM35.0 °F31.0 °F79 %30.01 in6.0 miENE (60°)4.5 mphOvercast
8:00 AM39.2 °F33.8 °F81 %29.95 in5.6 miNE (40°)4.5 mphOvercast
9:00 AM35.6 °F33.8 °F93 %29.98 in5.6 miWNW (300°)6.7 mphMostly Cloudy
10:00 AM37.4 °F35.6 °F93 %30.01 in6.2 miNW (320°)6.7 mphMostly Cloudy
11:00 AM41.0 °F34.0 °F68 %30.03 in6.0 miWNW (290°)6.7 mphScattered Clouds
11:00 AM41.0 °F35.6 °F81 %29.98 in6.2 miWNW (290°)4.5 mphMostly Cloudy
12:00 PM46.4 °F37.4 °F71 %30.01 in6.2 miWNW (300°)8.9 mphScattered Clouds
1:00 PM50.0 °F37.4 °F62 %29.98 in6.2 miWNW (300°)8.9 mphScattered Clouds
2:00 PM54.0 °F32.0 °F31 %29.99 in6.0 miWest (270°)4.5 mphPartly Cloudy
2:00 PM53.6 °F39.2 °F58 %29.95 in6.2 miVariable2.2 mphScattered Clouds
3:00 PM53.6 °F39.2 °F58 %29.95 in6.2 miVariable2.2 mphMostly Cloudy
4:00 PM55.4 °F37.4 °F51 %29.92 in6.2 miNE (40°)4.5 mphMostly Cloudy
5:00 PM56.0 °F38.0 °F40 %29.94 in6.0 miNNE (20°)4.5 mphScattered Clouds
5:00 PM57.2 °F37.4 °F48 %29.89 in6.2 miVariable2.2 mphScattered Clouds
6:00 PM55.4 °F37.4 °F51 %29.92 in6.2 miCalmScattered Clouds
7:00 PM50.0 °F37.4 °F62 %29.95 in6.2 miCalmScattered Clouds
8:00 PM48.0 °F37.0 °F56 %29.98 in6.0 miCalmScattered Clouds
8:00 PM46.4 °F37.4 °F71 %29.95 in6.2 miCalmScattered Clouds
9:00 PM46.4 °F37.4 °F71 %29.95 in6.2 miCalmScattered Clouds
10:00 PM42.8 °F35.6 °F76 %29.95 in5.6 miCalmPartly Cloudy
11:00 PM43.0 °F36.0 °F68 %29.99 in6.0 miSSE (160°)2.2 mphClear
11:00 PM42.8 °F37.4 °F81 %29.95 in5.6 miVariable2.2 mphPartly Cloudy
Hourly data recorded from UTAA, located miles away from Kurtile, Turkmenistan







STORIES FROM OUR PARTNERS